Location: Bremen
(53.0793°N, 8.8017°E)
Time: 02:06:46
(UTC+01:00)

Transit 2A - Pass Details

Date: 02 December 2021
Orbit: 591 x 967 km, 66.7° (Epoch: 17 January)

Event Time Altitude Azimuth Distance (km) Brightness Sun altitude
Exits shadow 04:23:48 24° 7° (N) 1,868 8.0 -33.9°
Drops below altitude 10° 04:27:33 10° 41° (NE) 2,711 9.3 -33.3°
Sets 04:30:38 0° 53° (NE) 3,665 10.3 -32.8°
